RH
50 51 49 45 44 42 42 42 42 42 42 44 47 50 51 52 54 57 59 59 59 59 58 58 58 59 60 60 62 66 69 70 74 78 81 81 79 79 76 68 60 57 56 56 56 56 58 58 56 55 56 58 59 58 57 54 53 52 51 50 49 48 48
51 50 47 42 40 38 37 36 35 35 36 39 42 44 46 47 48 52 55 57 58 58 59 59 59 58 57 58 61 64 68 70 73 78 81 82 83 83 80 72 64 59 58 57 56 54 55 55 55 56 57 58 59 59 58 56 55 54 55 54 52 51 52
47 45 42 39 37 35 34 33 31 28 28 33 37 39 41 43 45 47 51 54 55 57 58 59 60 59 56 56 59 63 66 68 71 76 79 81 84 86 82 76 72 69 66 63 58 54 54 53 53 54 57 59 59 60 60 58 57 57 58 59 57 55 55
42 38 36 35 34 33 32 31 28 26 26 29 33 36 38 39 40 43 47 51 51 53 57 58 58 59 57 56 57 61 65 66 67 71 77 79 80 82 82 78 75 74 73 69 63 58 56 54 51 53 61 63 60 59 60 60 60 60 60 61 60 58 57
40 36 33 32 30 29 27 26 25 25 26 27 30 32 35 35 36 38 43 47 49 50 53 56 58 59 59 58 56 58 63 66 66 68 74 79 79 79 81 81 77 76 75 73 69 64 61 59 53 53 60 64 62 60 59 58 59 60 60 61 61 60 58
39 34 30 29 28 27 26 25 25 24 26 27 28 29 29 29 31 33 36 42 47 50 50 53 56 58 60 61 58 57 59 62 66 67 70 78 82 80 80 82 79 76 74 71 68 67 65 63 60 57 59 63 62 62 61 60 58 58 58 60 60 59 57
36 30 28 27 28 29 29 28 27 25 25 25 24 24 24 25 27 28 29 33 39 45 47 49 53 55 58 62 61 61 60 59 63 67 68 74 80 81 80 80 78 75 73 68 63 62 63 64 63 62 63 65 63 63 66 65 64 65 63 58 58 58 57
35 31 29 29 29 30 30 29 30 29 28 26 25 24 23 22 23 25 27 28 30 34 38 42 46 50 53 57 60 63 62 60 61 66 69 71 76 80 79 77 77 75 73 67 60 56 58 60 60 62 68 72 68 67 70 70 70 74 72 63 58 58 59
37 33 31 30 31 31 29 29 29 29 30 30 29 28 28 25 23 24 25 26 28 28 29 33 37 41 46 51 55 60 62 61 62 64 67 68 72 77 79 76 75 75 75 71 65 59 58 59 57 57 63 67 67 69 73 72 73 77 79 73 62 57 59
37 33 30 30 32 31 30 29 28 28 31 32 31 30 30 29 28 26 24 24 28 29 29 29 30 33 36 40 46 52 58 62 64 65 66 68 70 75 79 78 77 76 76 75 71 66 63 63 60 57 57 59 63 67 70 73 73 74 79 78 68 60 59
37 34 29 28 30 29 29 29 29 29 31 32 31 30 30 30 30 30 27 25 27 29 29 29 30 31 32 34 36 41 49 58 65 66 67 69 71 72 75 78 77 77 75 74 72 69 66 64 63 60 58 59 61 64 66 70 72 72 74 77 77 71 64
38 36 31 28 30 31 31 31 31 31 31 31 30 29 30 31 32 33 31 28 27 28 28 29 30 32 33 33 33 35 40 49 60 66 68 70 72 73 72 74 77 77 76 74 72 70 68 66 64 63 61 60 62 62 62 64 69 71 71 73 77 78 71
39 36 32 31 33 34 33 33 32 32 32 31 30 30 31 32 32 33 32 30 29 28 28 28 30 32 35 35 35 35 37 43 52 61 66 69 71 73 70 69 73 77 77 76 73 71 71 69 67 65 64 63 62 61 60 62 68 73 72 70 71 76 76
38 34 33 34 35 35 33 32 32 32 32 32 32 33 34 34 34 33 32 32 32 31 29 28 29 32 36 37 38 38 39 41 47 55 64 68 68 70 69 67 69 73 76 76 76 75 74 73 70 67 67 66 64 62 61 62 67 73 75 73 72 74 76
36 35 36 36 36 35 32 32 30 30 31 32 33 35 35 35 35 34 33 33 34 33 31 31 30 31 35 38 39 41 43 44 46 52 62 68 67 67 68 67 68 71 74 75 76 78 77 76 74 71 69 67 64 63 63 63 65 69 71 72 71 72 74
37 37 36 36 35 34 31 30 29 29 31 32 33 34 35 35 34 33 34 35 35 35 34 33 32 31 33 37 40 42 45 48 49 53 62 69 68 66 67 68 69 71 74 75 76 77 79 78 76 74 72 69 67 66 66 66 67 68 68 69 70 70 70
39 38 36 35 33 31 29 29 29 31 32 32 32 33 33 32 32 32 34 35 36 36 36 34 33 32 32 34 38 41 44 48 50 54 63 70 70 66 66 67 68 70 72 74 75 77 77 78 77 76 74 72 70 70 70 70 70 69 68 68 69 69 70
40 38 36 33 30 29 29 30 32 32 32 32 31 31 31 31 32 33 35 36 37 37 36 36 36 34 32 32 36 38 41 44 47 53 61 69 71 68 65 66 68 70 71 72 74 75 76 76 76 75 75 74 72 72 71 71 72 71 71 70 69 70 71
40 38 34 32 31 30 31 33 33 33 33 33 32 33 33 32 33 35 35 36 37 37 37 37 38 37 34 32 34 37 39 42 45 49 57 66 71 71 67 65 67 70 72 71 72 73 74 72 72 72 74 75 74 73 71 71 71 71 72 73 72 71 70
37 34 32 32 32 32 33 34 34 34 35 36 36 36 36 35 36 37 37 37 37 37 39 39 39 40 38 34 34 36 38 40 43 46 51 59 69 75 74 69 68 69 71 71 72 72 71 70 69 69 71 73 74 74 72 72 72 72 72 73 74 72 70
32 30 30 32 33 34 35 35 36 38 39 39 39 38 38 38 38 39 39 38 38 39 40 40 40 41 40 37 36 36 36 38 40 44 48 52 60 73 79 76 70 68 69 70 72 72 71 69 69 70 71 71 72 72 73 73 74 74 73 73 73 73 71
29 29 30 32 35 36 37 38 40 41 41 40 40 39 38 38 39 40 42 42 41 41 41 41 40 41 41 40 39 37 37 38 39 41 46 49 52 64 77 79 73 69 68 68 71 73 72 71 71 72 72 72 71 72 73 74 75 76 75 74 74 74 73
28 29 31 35 38 39 39 41 43 42 41 40 39 38 38 38 40 42 45 45 45 44 43 43 43 43 43 42 42 39 38 39 38 39 44 49 51 56 70 79 77 71 69 69 69 70 71 72 72 72 71 70 70 72 73 73 75 75 75 74 73 74 74
28 28 32 36 40 40 41 44 44 42 40 39 38 37 38 39 41 43 45 46 46 45 45 45 46 46 46 45 44 42 41 40 40 40 42 47 51 53 62 75 80 76 72 72 71 68 68 69 68 68 68 67 67 69 70 72 73 75 75 74 73 73 73
28 30 34 38 41 42 42 44 43 41 40 38 37 36 38 41 44 45 45 46 46 46 46 46 48 48 49 48 46 45 43 42 41 41 42 46 51 54 58 69 80 81 76 73 71 69 71 73 69 65 65 65 65 66 68 69 72 74 75 75 75 76 76
29 32 37 41 43 43 44 45 44 41 39 37 36 37 39 42 44 45 46 47 47 48 48 48 49 50 49 50 49 48 46 44 42 43 44 46 50 55 57 64 75 81 79 74 70 67 72 76 73 67 65 64 63 65 66 67 69 72 75 75 75 76 77
30 35 39 42 42 43 44 44 43 40 38 37 38 41 44 46 46 47 48 50 52 52 51 51 51 52 50 50 50 50 48 46 43 43 45 47 50 54 57 60 70 80 81 76 69 66 67 71 72 69 66 64 63 64 65 65 67 70 73 75 75 75 76
33 37 41 43 43 43 43 41 40 38 36 37 41 46 49 51 51 51 52 56 57 57 55 54 54 54 54 52 51 51 50 48 45 43 44 47 49 52 56 59 66 77 83 78 72 69 66 67 69 69 66 64 64 65 65 66 69 71 73 75 76 77 77
37 41 43 44 44 43 41 40 38 37 37 40 46 50 53 54 56 57 58 60 61 59 57 57 57 58 58 56 54 53 51 50 48 44 43 47 49 53 57 61 64 74 81 80 75 70 67 66 68 67 65 64 65 65 66 69 73 75 77 78 79 78 76
40 42 44 45 43 41 40 39 38 37 40 45 50 54 56 58 60 62 61 62 62 60 58 58 58 59 60 60 58 56 53 51 49 46 44 47 51 56 60 64 68 73 81 82 76 69 66 66 67 66 64 64 65 65 67 70 73 75 78 81 81 78 76
40 43 45 44 41 40 39 39 38 39 43 47 51 56 60 62 63 63 63 63 63 62 60 60 60 60 60 61 61 59 56 54 52 49 46 47 52 58 62 66 70 75 80 82 77 69 66 65 65 63 63 64 65 67 71 76 75 74 77 81 83 80 80
43 45 45 43 40 40 39 39 40 42 44 47 51 58 62 63 64 64 65 65 64 63 63 62 62 61 61 62 62 60 58 56 54 51 48 46 50 58 63 67 73 78 82 81 75 68 65 64 64 63 62 65 66 70 78 83 77 73 76 79 81 82 84
45 45 43 41 41 41 41 40 41 42 45 48 53 59 63 64 64 64 65 65 65 65 65 63 62 62 62 63 63 61 59 58 56 53 49 47 49 56 62 67 74 80 83 81 75 70 66 65 65 64 64 68 71 73 81 86 78 71 72 75 79 84 85
45 43 41 41 43 43 42 42 43 43 45 49 55 60 63 65 66 65 64 65 66 66 66 64 62 62 62 63 64 62 60 58 57 54 51 48 50 56 62 67 73 79 82 82 78 73 68 67 68 67 69 75 76 76 82 87 81 71 65 66 74 83 84
43 41 41 42 45 45 45 44 45 44 46 52 58 61 63 66 67 66 64 63 65 67 68 65 63 61 62 64 64 64 62 59 58 56 53 49 50 57 65 69 74 78 81 81 79 75 71 70 70 70 74 79 79 79 82 83 80 72 61 55 63 75 81
42 41 42 44 46 46 45 45 46 46 50 54 58 60 63 66 68 69 66 62 62 65 67 67 65 62 62 64 65 65 63 61 59 56 54 50 50 55 65 72 75 77 80 79 77 76 74 73 72 74 78 79 78 80 80 77 75 72 60 50 53 63 74
42 42 43 45 46 46 45 45 45 47 51 55 58 60 63 67 70 72 70 65 62 62 65 69 68 64 63 65 66 66 64 63 60 58 55 53 52 55 63 72 76 78 78 78 78 77 75 73 75 78 78 78 76 77 76 74 71 66 57 50 50 54 61
42 43 44 45 46 46 46 47 46 45 46 52 58 61 64 67 70 73 73 69 64 62 63 67 69 67 66 66 68 68 67 65 64 61 57 55 54 57 62 70 75 78 78 80 82 82 77 74 76 78 79 78 75 73 73 74 67 56 51 53 54 53 54